Regional Weather Roundup
Issued by NWS

Home | Current Version | Previous Version | Text Only | Print | Product List | Glossary Off
Versions: 1 2 3 4 5 6 7 8 9 10 11 12 13 14 15 16 17 18 19 20 21 22 23 24 25 26 27 28 29 30 31 32 33 34 35 36 37 38 39 40 41 42 43 44 45 46 47 48 49 50

901
ASUS45 KSLC 251910
RWRUT

UTAH REGIONAL WEATHER ROUNDUP
NATIONAL WEATHER SERVICE SALT LAKE CITY UT
100 PM MDT MON SEP 25 2017

UTZ001>011-023>025-252000-

NORTHERN UTAH

CITY           SKY/WX    TMP DP  RH WIND       PRES   REMARKS
BRIGHAM CITY   PTSUNNY   54  38  54 SW5       30.14F
DUGWAY         MOSUNNY   58  33  39 W5        30.12S
HILL AFB       SUNNY     54  34  46 NW6       30.13F
LOGAN          MOSUNNY   56  40  55 N3        30.13F
OGDEN          PTSUNNY   56  38  50 VRB5      30.12F
SALT LAKE CITY MOSUNNY   57  38  48 VRB3      30.12F
TOOELE VALLEY  SUNNY     55  39  54 N3        30.13F
WENDOVER       PTSUNNY   56  35  45 VRB5      30.14F
HEBER CITY     MOSUNNY   50  32  50 CALM      30.13F
WEST JORDAN    PTSUNNY   54  40  60 CALM      30.13F

$$

UTZ011>015-024>027-252000-

CENTRAL/NORTHEAST UTAH

CITY           SKY/WX    TMP DP  RH WIND       PRES   REMARKS
PROVO AIRPORT  MOSUNNY   51  38  60 VRB6      30.15S
MOAB/CANYONLAN SUNNY     60  30  32 VRB5      30.05F
DELTA          SUNNY     54  36  50 SE5       30.13S
PRICE          PTSUNNY   55  26  32 VRB3      30.09F
ROOSEVELT      CLOUDY    52  36  54 SE5       30.14F
VERNAL         CLOUDY    53  37  54 CALM      30.12F

$$

UTZ013>016-019>022-027-252000-

SOUTHERN UTAH

CITY           SKY/WX    TMP DP  RH WIND       PRES   REMARKS
BRYCE CANYON   SUNNY     48  22  35 S3        30.12F
CEDAR CITY     SUNNY     56  32  40 N6        30.08F
MILFORD        SUNNY     57  32  38 N17       30.10F
ST GEORGE      CLEAR     66  30  26 VRB6      30.01F
HANKSVILLE     SUNNY     59  28  31 N7        30.09S
BLANDING         N/A     60  25  26 W5        30.13F

$$

REGIONAL REPORTS     COLORADO/ARIZONA

CITY           SKY/WX    TMP DP  RH WIND       PRES   REMARKS
CRAIG, CO      MOSUNNY   54  26  34 NW7       30.11F
GRAND JUNCTION SUNNY     59  31  34 CALM      30.05F
RIFLE, CO      SUNNY     56  31  38 CALM      30.06F
MONTROSE, CO   SUNNY     54  29  38 VRB7      30.09F
CORTEZ, CO     SUNNY     60  23  24 NW6       30.06F
PAGE, AZ       SUNNY     63  29  27 CALM      30.04F
GRAND CANYON   MOSUNNY   59  21  23 NE8       30.09F
KINGMAN, AZ    MOSUNNY   70  28  21 N10       29.97F
FLAGSTAFF, AZ  SUNNY     58  16  19 E10G17    30.09S

$$

REGIONAL REPORTS    NEVADA/IDAHO/WYOMING

CITY           SKY/WX    TMP DP  RH WIND       PRES   REMARKS
LAS VEGAS, NV  MOSUNNY   74  27  17 N9G18     29.97F
ELY, NY        SUNNY     51  27  39 N8        30.14F
ELKO, NV       CLOUDY    55  27  34 N6        30.13F
POCATELLO, ID  MOSUNNY   56  36  47 NW9G18    30.15F
BURLEY, ID     SUNNY     55  36  48 NW6       30.12F
FORT BRIDGER,    N/A     47  33  57 NW14G21   30.17F
EVANSTON, WY   CLOUDY    44  32  62 S6        30.15F
ROCK SPRINGS,  CLOUDY    43  31  62 W7        30.13F

$$




USA.gov is the U.S. government's official web portal to all federal, state and local government web resources and services.